Wind_Speed
65 64 66 77 88 92 96 94 93 91 87 86 85 82 81 79 75 70 69 67 64 62 59 58 56 55 52 52 51 51 47 44 45 44 42 42 42 42 44 43 42 42 43 45 46
55 56 58 69 86 93 98 97 96 94 90 87 85 83 80 78 76 70 69 69 66 63 61 59 58 55 54 51 50 48 47 47 50 49 47 45 45 44 47 46 46 47 47 48 50
48 49 53 63 80 92 100 101 98 94 92 88 86 84 81 79 77 75 69 68 67 65 62 61 59 57 56 53 52 50 48 49 50 50 50 51 50 50 52 51 50 51 51 50 52
41 44 49 59 74 90 100 103 100 97 93 90 89 85 82 80 76 75 72 67 67 67 63 61 60 58 57 56 54 51 51 51 51 52 51 53 52 51 53 54 55 54 54 55 55
36 40 46 56 71 88 99 104 101 97 94 92 88 86 81 81 78 74 72 70 65 66 67 62 60 61 58 58 55 55 55 55 55 56 55 55 57 56 56 57 56 57 57 58 59
30 37 45 56 69 85 97 103 103 98 94 92 87 85 82 80 79 75 72 70 68 63 64 66 64 62 61 61 57 54 56 55 56 55 56 57 58 58 57 57 57 58 59 59 60
23 33 43 55 69 82 96 102 104 98 94 91 87 84 81 81 79 74 72 70 68 67 63 64 66 63 61 60 59 58 57 58 56 56 57 57 59 60 59 59 61 63 63 63 65
20 31 42 54 68 80 95 101 102 98 93 89 86 83 81 79 77 73 71 68 67 66 64 61 63 65 62 61 59 59 59 58 58 59 61 60 62 65 64 63 65 66 67 68 68
19 32 42 54 65 78 93 100 99 96 91 87 85 82 78 75 74 72 70 67 66 62 60 58 61 62 62 63 61 60 60 60 61 60 63 64 63 65 67 66 67 67 69 68 66
22 32 43 54 67 78 89 96 98 92 87 84 83 80 76 73 71 70 68 65 64 62 59 57 54 55 55 56 60 62 64 61 59 60 62 63 63 63 65 64 65 64 64 64 64
23 31 41 52 63 75 85 91 94 88 82 78 76 77 75 71 69 68 68 65 63 61 58 57 57 54 54 56 54 51 53 55 60 58 60 62 61 62 64 66 63 64 62 65 67
25 32 39 48 59 69 79 84 83 79 77 78 77 74 72 70 69 67 68 66 63 59 57 55 52 55 58 57 57 55 53 55 55 57 59 59 60 61 62 67 66 68 71 74 76
24 32 39 48 57 67 76 81 78 74 72 72 72 71 72 71 71 68 67 69 63 61 59 57 56 56 55 55 56 56 57 58 60 58 60 60 61 64 67 71 72 74 76 76 78
24 30 37 45 54 66 74 78 77 71 70 69 67 66 67 69 68 69 67 68 69 64 62 60 61 61 60 60 61 61 62 64 65 64 67 71 68 77 74 76 78 79 79 79 80
27 31 36 43 50 59 67 70 72 69 67 66 65 64 64 65 66 66 66 64 64 67 68 67 68 68 66 67 66 66 69 70 72 71 70 75 69 74 76 78 78 79 80 81 81
30 32 36 40 47 54 62 63 65 65 64 61 60 59 59 60 63 64 65 65 64 64 63 63 65 66 65 67 68 68 70 70 70 71 71 74 74 74 76 78 78 79 79 79 77
27 30 32 37 42 46 53 57 59 59 58 56 54 53 55 56 58 61 63 64 64 65 64 64 65 67 66 68 69 69 72 73 73 75 74 74 74 75 74 75 76 77 77 75 73
22 21 25 32 35 43 46 50 51 53 53 53 52 52 53 54 55 57 60 62 65 65 66 65 67 71 70 71 71 73 74 74 73 73 73 74 74 73 73 73 72 74 74 73 72
21 19 17 19 25 31 36 38 46 46 46 47 47 46 46 48 50 51 54 58 60 62 63 64 65 69 69 68 69 70 71 71 71 72 71 72 72 71 72 73 72 71 70 71 72
14 13 14 13 17 22 27 33 36 37 40 40 41 42 42 43 45 46 49 51 52 54 56 57 57 62 64 64 64 65 67 68 68 68 68 70 70 70 72 71 70 69 69 71 74
11 12 13 14 15 17 19 22 25 28 30 31 33 33 36 36 37 39 44 43 46 48 50 51 53 56 57 58 60 62 64 65 66 66 65 65 68 71 71 70 70 71 74 77 78
9 12 14 15 17 19 20 21 24 25 27 29 30 31 33 34 35 37 39 39 42 44 46 48 50 52 55 57 59 61 62 62 62 63 64 66 64 71 71 71 72 75 77 79 81
5 7 11 15 17 19 20 22 24 26 28 29 30 31 32 34 35 37 39 40 42 43 44 45 47 48 51 53 55 57 58 60 59 59 64 66 69 71 73 74 77 79 81 83 83
13 12 12 12 15 17 20 23 25 26 27 28 30 31 33 34 36 38 38 40 41 43 45 47 48 48 49 49 51 54 58 60 62 63 65 67 70 77 76 77 79 81 82 84 86
22 21 19 19 19 19 20 21 23 25 27 29 31 32 33 35 36 38 38 40 41 42 43 45 46 48 51 52 53 55 60 64 65 67 66 69 72 76 80 85 88 89 89 91 95
27 28 28 27 26 26 27 27 27 28 29 30 31 32 34 35 37 38 40 42 44 45 47 48 49 51 54 54 56 58 63 66 68 70 70 73 77 80 85 89 92 94 95 98 101
32 32 32 33 34 35 34 35 35 35 36 36 37 38 39 40 41 43 44 45 48 50 51 53 54 55 57 61 62 64 68 71 74 76 77 80 83 87 90 92 94 96 98 100 102
Wind_Direction
256 247 236 224 217 214 213 215 215 213 211 212 214 213 213 214 214 214 212 215 217 219 220 222 223 225 228 230 231 232 234 238 240 249 249 253 256 263 265 266 270 271 273 280 285
254 243 230 218 213 210 209 213 213 213 210 210 212 212 211 213 213 214 214 215 217 219 221 223 225 227 229 231 233 236 237 240 244 249 251 255 260 261 265 268 271 274 276 280 284
249 238 224 212 209 207 206 208 210 210 210 209 210 211 211 210 212 214 214 215 217 220 222 224 226 229 231 232 234 238 239 242 244 246 252 255 258 262 266 271 272 274 277 279 282
241 230 217 208 204 202 201 205 207 209 209 208 208 210 210 209 211 212 215 216 218 220 223 225 227 230 233 236 236 239 241 242 246 249 252 257 260 263 267 271 274 276 278 280 282
233 221 211 203 199 199 198 200 203 206 208 207 206 209 209 209 211 213 215 217 220 221 224 226 229 232 234 237 238 241 243 247 248 252 254 258 262 264 266 271 274 276 278 281 282
225 214 204 197 195 196 195 197 200 204 206 206 206 207 209 211 211 213 215 218 221 223 225 226 230 233 234 238 240 243 247 248 252 255 258 261 265 268 269 272 275 277 279 281 283
211 201 194 192 191 192 193 195 196 201 204 204 205 205 208 211 212 214 217 219 222 225 227 228 231 233 236 240 241 244 249 252 254 257 260 262 265 268 271 273 276 278 280 282 283
192 188 184 186 186 187 191 192 193 198 201 202 203 205 207 210 212 215 218 219 221 224 229 231 232 234 237 241 244 245 248 253 257 259 263 265 269 271 272 275 278 281 282 283 285
163 173 176 179 182 186 189 190 191 196 199 201 202 205 206 209 211 213 217 220 220 222 227 231 232 235 239 242 244 246 250 252 257 260 264 267 270 274 277 278 279 281 284 285 286
146 162 170 175 180 184 187 187 190 195 198 199 201 204 206 208 211 212 215 219 221 223 226 230 232 235 238 242 246 249 251 253 256 262 266 267 270 273 276 278 280 282 284 285 284
137 153 165 173 179 182 184 186 189 193 196 197 202 204 207 208 211 213 214 217 221 225 226 231 237 241 245 246 249 252 253 256 256 260 266 270 273 275 279 279 280 281 280 280 282
134 148 160 169 175 179 181 183 186 188 193 195 199 203 207 210 212 215 215 217 221 223 227 231 240 244 246 249 253 254 259 264 266 266 268 270 272 274 274 277 278 277 278 280 282
131 145 157 165 170 174 178 180 184 187 192 195 200 202 207 209 213 217 219 219 221 226 229 232 236 241 245 249 255 260 260 260 263 265 268 269 267 270 271 274 276 277 279 280 283
124 138 151 162 170 174 177 181 184 187 193 196 201 203 207 211 214 217 221 223 225 227 230 233 237 241 244 248 251 255 258 261 263 264 266 268 271 275 275 275 277 279 280 282 283
114 130 145 154 162 170 176 182 185 187 193 198 202 206 210 214 217 219 223 227 230 233 236 239 244 248 250 251 253 255 259 260 264 267 268 271 273 276 278 277 279 281 283 284 285
108 124 136 148 161 170 177 182 189 191 196 200 205 210 215 218 221 224 226 229 233 236 239 242 245 249 252 255 258 261 263 265 267 269 271 273 275 274 276 279 282 283 283 284 285
107 123 134 147 159 168 178 185 192 197 201 205 210 215 220 224 226 228 231 233 236 239 242 244 248 252 254 257 260 262 264 266 267 270 272 274 276 277 278 279 279 281 282 285 288
94 114 137 150 160 171 180 187 193 199 206 210 215 220 224 229 232 234 236 238 240 243 245 248 251 254 256 259 261 262 265 267 271 273 275 274 274 274 276 277 277 281 284 287 289
82 106 129 148 167 176 181 188 198 204 211 216 222 227 233 237 240 241 242 244 245 248 250 252 254 259 259 260 263 266 268 269 269 270 271 273 274 275 276 277 279 282 284 287 287
104 108 115 133 164 181 191 200 205 211 218 224 229 234 238 241 243 244 244 247 249 250 252 254 255 256 259 260 261 263 266 268 269 271 273 276 276 278 278 280 282 284 285 282 281
127 142 152 164 170 179 194 203 212 219 224 228 233 235 239 240 242 241 244 244 247 250 251 253 255 257 260 262 264 266 267 269 271 273 274 275 278 280 281 283 285 284 284 283 284
148 162 168 178 186 195 202 205 216 221 226 229 233 235 237 241 237 243 244 246 248 250 252 255 256 258 261 264 266 268 270 272 273 275 276 276 278 278 280 280 280 280 281 282 282
203 182 189 193 197 202 207 214 219 222 225 228 231 234 236 240 243 244 249 250 254 256 258 259 260 261 263 265 267 269 271 273 274 276 278 280 279 279 280 282 283 284 284 285 287
228 226 223 219 220 218 219 219 222 226 230 233 236 239 241 243 246 248 249 252 254 256 259 260 262 264 265 267 270 272 273 274 275 275 275 279 281 284 285 284 283 283 284 286 289
242 237 232 231 233 233 235 236 237 237 237 238 239 241 243 244 247 249 251 253 255 257 259 261 263 264 265 267 268 270 274 277 278 280 283 283 285 286 287 287 288 289 291 292 292
244 243 244 242 242 241 240 241 243 245 247 247 248 250 251 253 254 257 258 259 260 262 264 266 268 270 272 272 274 275 277 279 281 282 284 284 284 285 285 286 286 288 289 290 291
245 245 246 246 246 247 249 250 248 249 249 251 254 255 256 256 258 259 261 263 266 266 267 268 270 271 274 277 279 280 281 282 284 285 286 287 287 287 287 288 290 291 291 292 292
Height
10615 10623 10634 10650 10669 10689 10707 10723 10740 10756 10771 10786 10798 10812 10824 10836 10849 10860 10868 10876 10883 10892 10897 10903 10908 10912 10917 10922 10927 10932 10937 10940 10937 10939 10944 10944 10945 10946 10945 10949 10950 10950 10948 10946 10946
10590 10598 10609 10625 10644 10667 10687 10705 10723 10742 10760 10774 10788 10802 10815 10829 10842 10852 10861 10869 10877 10885 10891 10897 10902 10907 10912 10917 10921 10926 10931 10932 10933 10935 10936 10938 10938 10941 10937 10941 10942 10942 10942 10940 10938
10571 10578 10589 10605 10623 10646 10669 10688 10708 10729 10747 10763 10779 10793 10808 10822 10834 10844 10854 10863 10871 10877 10884 10890 10896 10901 10906 10911 10915 10919 10924 10925 10926 10930 10929 10930 10933 10933 10931 10931 10934 10935 10934 10932 10930
10555 10562 10573 10589 10606 10628 10652 10673 10696 10717 10735 10752 10769 10784 10800 10815 10825 10837 10847 10855 10863 10869 10877 10884 10890 10895 10900 10904 10909 10913 10914 10917 10920 10921 10923 10922 10925 10926 10924 10924 10924 10924 10923 10923 10921
10542 10550 10562 10577 10595 10615 10639 10662 10684 10706 10725 10743 10760 10777 10793 10807 10817 10829 10840 10848 10855 10863 10870 10878 10884 10887 10894 10895 10902 10905 10907 10910 10913 10914 10916 10916 10914 10917 10918 10916 10916 10914 10913 10912 10910
10534 10542 10553 10568 10586 10606 10630 10652 10674 10696 10717 10736 10754 10771 10787 10799 10810 10821 10832 10840 10849 10857 10864 10869 10874 10881 10885 10888 10896 10899 10900 10902 10904 10907 10908 10909 10906 10905 10909 10908 10906 10904 10903 10902 10898
10529 10537 10548 10562 10579 10600 10623 10644 10668 10689 10710 10729 10748 10766 10779 10789 10803 10814 10824 10834 10843 10850 10857 10863 10868 10873 10878 10882 10887 10891 10893 10893 10897 10898 10898 10899 10898 10894 10899 10899 10896 10893 10891 10891 10888
10528 10536 10546 10561 10577 10597 10618 10641 10664 10685 10706 10726 10744 10759 10771 10784 10799 10809 10818 10827 10836 10843 10850 10856 10862 10866 10871 10874 10879 10882 10885 10887 10889 10889 10888 10890 10887 10884 10888 10889 10886 10884 10880 10879 10875
10532 10540 10550 10564 10579 10596 10616 10640 10663 10683 10703 10723 10741 10756 10770 10783 10793 10803 10813 10823 10830 10837 10844 10850 10855 10859 10863 10867 10869 10874 10876 10878 10878 10880 10878 10880 10879 10875 10874 10877 10875 10874 10867 10866 10863
10541 10548 10558 10569 10583 10600 10620 10644 10664 10685 10706 10723 10737 10752 10767 10777 10788 10799 10809 10817 10825 10831 10837 10843 10848 10850 10855 10859 10860 10866 10868 10870 10873 10870 10865 10868 10869 10867 10862 10863 10861 10862 10857 10851 10850
10553 10559 10568 10579 10593 10610 10629 10650 10671 10691 10711 10729 10743 10751 10762 10775 10784 10794 10803 10811 10818 10825 10831 10834 10839 10845 10848 10849 10853 10856 10858 10859 10864 10862 10858 10858 10856 10856 10850 10849 10852 10847 10847 10840 10835
10565 10571 10580 10591 10605 10622 10642 10663 10682 10698 10711 10723 10732 10747 10761 10771 10780 10789 10797 10805 10811 10818 10823 10829 10833 10835 10838 10841 10843 10846 10848 10846 10850 10852 10849 10852 10847 10846 10842 10834 10837 10834 10832 10829 10825
10580 10584 10592 10602 10613 10629 10646 10664 10683 10699 10712 10723 10734 10745 10756 10765 10772 10783 10791 10798 10805 10811 10817 10822 10824 10827 10831 10833 10835 10837 10835 10836 10840 10842 10838 10841 10839 10835 10831 10823 10822 10820 10816 10815 10810
10594 10598 10605 10616 10629 10640 10655 10670 10685 10700 10713 10723 10734 10744 10752 10760 10769 10776 10784 10791 10799 10804 10808 10815 10816 10818 10821 10824 10824 10826 10827 10826 10827 10830 10829 10825 10833 10815 10818 10813 10808 10806 10802 10799 10796
10610 10613 10619 10628 10639 10654 10668 10680 10691 10701 10713 10724 10733 10742 10750 10758 10767 10773 10780 10787 10793 10798 10804 10808 10808 10811 10815 10812 10816 10815 10815 10816 10816 10817 10819 10809 10820 10804 10799 10793 10794 10791 10787 10783 10779
10627 10629 10634 10642 10652 10665 10676 10688 10699 10707 10715 10724 10733 10742 10749 10757 10763 10769 10775 10781 10786 10790 10795 10800 10798 10800 10804 10802 10804 10804 10803 10804 10803 10802 10804 10797 10799 10796 10787 10782 10779 10773 10770 10766 10763
10642 10645 10649 10655 10663 10674 10683 10693 10702 10712 10720 10728 10735 10742 10747 10752 10758 10763 10768 10774 10778 10781 10786 10790 10790 10789 10793 10792 10792 10792 10790 10789 10790 10788 10788 10785 10782 10777 10775 10770 10763 10756 10754 10751 10748
10656 10659 10663 10666 10674 10680 10689 10697 10706 10713 10721 10727 10733 10738 10743 10747 10751 10756 10762 10765 10768 10773 10776 10780 10780 10776 10780 10780 10779 10777 10777 10776 10776 10773 10772 10768 10766 10764 10757 10753 10751 10744 10741 10737 10732
10666 10669 10673 10678 10683 10689 10696 10702 10707 10716 10722 10728 10733 10736 10741 10744 10747 10751 10754 10755 10760 10762 10766 10768 10769 10764 10767 10768 10767 10763 10762 10763 10761 10757 10758 10751 10749 10746 10741 10736 10736 10736 10731 10725 10717
10673 10676 10679 10683 10688 10694 10699 10704 10711 10716 10721 10725 10728 10732 10735 10737 10740 10743 10744 10746 10750 10753 10754 10755 10757 10752 10752 10752 10754 10752 10749 10747 10745 10744 10741 10735 10731 10728 10722 10721 10720 10720 10716 10705 10694
10679 10681 10683 10687 10691 10694 10698 10704 10709 10713 10716 10720 10723 10726 10727 10729 10732 10735 10733 10739 10740 10742 10743 10744 10744 10742 10741 10741 10740 10737 10734 10732 10731 10729 10727 10723 10714 10708 10706 10707 10704 10699 10690 10681 10675
10680 10682 10684 10687 10690 10692 10697 10702 10704 10707 10710 10714 10716 10719 10721 10722 10725 10725 10726 10729 10730 10731 10732 10733 10733 10732 10730 10729 10727 10722 10720 10718 10716 10712 10711 10705 10706 10693 10692 10691 10686 10679 10672 10667 10659
10680 10681 10683 10685 10688 10690 10694 10696 10700 10702 10705 10707 10709 10711 10713 10715 10716 10717 10718 10720 10720 10721 10721 10722 10722 10721 10718 10716 10713 10710 10707 10703 10703 10701 10693 10691 10682 10679 10676 10673 10665 10657 10650 10643 10636
10678 10680 10682 10683 10685 10687 10689 10691 10693 10695 10697 10700 10702 10703 10705 10707 10708 10708 10710 10710 10710 10710 10711 10710 10709 10709 10706 10705 10702 10696 10692 10688 10687 10684 10683 10676 10672 10657 10658 10652 10644 10637 10633 10628 10623
10673 10676 10678 10680 10682 10684 10685 10687 10689 10690 10691 10693 10694 10696 10697 10698 10699 10699 10700 10700 10699 10700 10699 10698 10697 10695 10692 10691 10690 10685 10678 10673 10671 10668 10669 10660 10655 10646 10638 10626 10618 10614 10612 10606 10597
10665 10669 10671 10674 10676 10678 10679 10681 10682 10684 10685 10687 10688 10689 10690 10691 10691 10690 10690 10690 10689 10689 10688 10686 10685 10683 10678 10677 10675 10671 10664 10659 10655 10653 10652 10646 10637 10632 10620 10610 10602 10597 10593 10582 10572
10657 10659 10662 10665 10667 10669 10671 10672 10674 10675 10676 10677 10678 10680 10680 10681 10681 10680 10679 10679 10677 10675 10674 10672 10671 10670 10666 10661 10658 10655 10647 10642 10638 10636 10634 10626 10616 10607 10598 10591 10584 10576 10566 10559 10549